Grand Isle, LA NWLON current weather conditions

sailwx.info

Wind from 334 at 6 knots gusting 9

Water temperature 14.4° C

Last reported at 2019-Nov-17 02:00 UTC.
Time now 2019-Nov-17 02:33 UTC

Location: N 29°16' W 089°57'.
View on Google Maps.

See reports from other nearby stations

  
Tides and Currents Weather Stations Pressure Air Temp Water Temp Dewpoint Dewpoint Depression Visibility Wind Speed Wind Dir Waves Ship Positions
date/time (UTC)wind fromknots sea level pressurealtimeterstation pressurevisibilityair tempwater tempwave heightnotes
2019-Nov-17 02:00 334 6 gusting 9 14.4
2019-Nov-17 01:42 333 6 gusting 6 14.4
2019-Nov-17 01:36 336 5 gusting 6 13.9
2019-Nov-17 01:30 341 4 gusting 6 13.9
2019-Nov-17 01:24 340 4 gusting 6 13.9
2019-Nov-17 01:18 340 5 gusting 7 13.9
2019-Nov-17 01:12 340 5 gusting 6 13.9
2019-Nov-17 01:06 346 5 gusting 7 13.9
2019-Nov-17 01:00 351 5 gusting 6 13.9
2019-Nov-17 00:54 348 6 gusting 7 13.9
2019-Nov-17 00:48 351 5 gusting 6 13.9
2019-Nov-17 00:42 349 6 gusting 7 13.3
2019-Nov-17 00:36 352 6 gusting 7 13.3
2019-Nov-17 00:30 357 6 gusting 7 13.3
2019-Nov-17 00:24 355 5 gusting 6 13.3
2019-Nov-17 00:18 349 5 gusting 6 13.3
2019-Nov-17 00:12 346 6 gusting 7 13.3
2019-Nov-17 00:06 346 6 gusting 7 13.3
2019-Nov-16 23:54 346 6 gusting 6 13.3
2019-Nov-16 23:42 340 6 gusting 7 13.3
2019-Nov-16 23:36 339 6 gusting 8 12.8
2019-Nov-16 23:30 335 6 gusting 8 12.8
2019-Nov-16 23:24 339 6 gusting 7 12.8
2019-Nov-16 23:18 336 6 gusting 8 12.8
2019-Nov-16 23:12 336 7 gusting 9 12.8
2019-Nov-16 23:06 338 6 gusting 9 12.8
2019-Nov-16 23:00 337 6 gusting 9 12.8
2019-Nov-16 22:54 332 7 gusting 10 12.8
2019-Nov-16 22:48 333 9 gusting 11 12.8
2019-Nov-16 22:42 333 9 gusting 11 12.8
2019-Nov-16 22:36 335 9 gusting 13 12.8
2019-Nov-16 22:30 334 8 gusting 10 12.8
2019-Nov-16 22:24 335 8 gusting 11 12.8
2019-Nov-16 22:18 334 7 gusting 9 12.8
2019-Nov-16 22:12 329 6 gusting 9 12.8
2019-Nov-16 22:06 331 7 gusting 9 12.8
2019-Nov-16 22:00 330 6 gusting 7 12.8
2019-Nov-16 21:54 332 6 gusting 7 12.8
2019-Nov-16 21:48 332 6 gusting 9 12.8
2019-Nov-16 21:42 330 6 gusting 8 12.8
2019-Nov-16 21:36 331 6 gusting 7 12.8
2019-Nov-16 21:30 332 5 gusting 7 12.8
2019-Nov-16 21:24 330 6 gusting 7 12.8
2019-Nov-16 21:18 330 6 gusting 7 12.8
2019-Nov-16 21:12 328 6 gusting 8 12.8
2019-Nov-16 21:06 330 6 gusting 7 12.8
2019-Nov-16 21:00 328 6 gusting 7 12.8
2019-Nov-16 20:54 333 6 gusting 8 12.8
2019-Nov-16 20:48 335 6 gusting 9 12.8
2019-Nov-16 20:42 332 6 gusting 9 12.8
2019-Nov-16 20:36 331 6 gusting 8 12.8
2019-Nov-16 20:30 332 7 gusting 9 12.8
2019-Nov-16 20:24 331 7 gusting 9 12.8
2019-Nov-16 20:18 332 7 gusting 9 12.8
2019-Nov-16 20:12 331 6 gusting 9 12.8
2019-Nov-16 20:06 319 7 gusting 10 12.8
2019-Nov-16 20:00 321 7 gusting 10 12.8
2019-Nov-16 19:54 328 7 gusting 10 12.8
2019-Nov-16 19:48 330 6 gusting 10 12.8
2019-Nov-16 19:42 324 7 gusting 10 12.8
2019-Nov-16 19:36 322 8 gusting 11 12.8
2019-Nov-16 19:30 330 6 gusting 9 12.8
2019-Nov-16 19:24 325 7 gusting 9 12.8
2019-Nov-16 19:18 331 7 gusting 9 12.8
2019-Nov-16 19:12 316 7 gusting 9 12.8
2019-Nov-16 19:06 314 6 gusting 9 12.8
2019-Nov-16 19:00 316 7 gusting 9 12.8
2019-Nov-16 18:54 326 6 gusting 8 12.8
2019-Nov-16 18:48 315 6 gusting 7 12.8
2019-Nov-16 18:42 323 5 gusting 7 12.8
2019-Nov-16 18:36 302 5 gusting 7 12.8
2019-Nov-16 18:30 307 6 gusting 7 12.8
2019-Nov-16 18:24 329 5 gusting 6 12.8
2019-Nov-16 18:18 346 6 gusting 7 12.8
2019-Nov-16 18:12 348 6 gusting 7 12.8
2019-Nov-16 18:06 349 6 gusting 7 12.2
2019-Nov-16 18:00 358 6 gusting 7 12.2
2019-Nov-16 17:54 345 6 gusting 7 12.2
2019-Nov-16 17:48 344 6 gusting 6 12.2
2019-Nov-16 17:42 351 6 gusting 7 12.2
2019-Nov-16 17:36 352 6 gusting 7 12.2
2019-Nov-16 17:30 343 6 gusting 7 12.2
2019-Nov-16 17:24 348 5 gusting 7 12.2
2019-Nov-16 17:18 351 6 gusting 8 12.2
2019-Nov-16 17:12 346 6 gusting 8 12.2
2019-Nov-16 17:06 342 6 gusting 8 12.2
2019-Nov-16 17:00 343 6 gusting 7 12.2
2019-Nov-16 16:54 341 6 gusting 8 12.2
2019-Nov-16 16:48 352 6 gusting 7 12.2
2019-Nov-16 16:42 350 6 gusting 8 12.2
2019-Nov-16 16:36 348 5 gusting 7 12.2
2019-Nov-16 16:30 355 6 gusting 9 12.2
2019-Nov-16 16:24 346 6 gusting 8 12.2
2019-Nov-16 16:18 349 7 gusting 9 12.2
2019-Nov-16 16:12 347 6 gusting 9 12.2
2019-Nov-16 16:06 355 7 gusting 10 12.2
2019-Nov-16 16:00 12.2
2019-Nov-16 15:54 359 8 gusting 10 12.2
2019-Nov-16 15:48 002 8 gusting 12 12.2
2019-Nov-16 15:42 360 9 gusting 13 12.2
2019-Nov-16 15:36 359 9 gusting 12 12.2
2019-Nov-16 15:30 358 9 gusting 12 12.2
2019-Nov-16 15:24 009 10 gusting 13 12.2
2019-Nov-16 15:18 358 11 gusting 13 12.2
2019-Nov-16 15:12 353 11 gusting 13 12.2
2019-Nov-16 15:06 353 12 gusting 13 12.2
2019-Nov-16 15:00 359 10 gusting 13 12.2
2019-Nov-16 14:54 352 11 gusting 13 12.2
2019-Nov-16 14:48 005 12 gusting 14 12.2
2019-Nov-16 14:42 12.2
2019-Nov-16 14:36 351 12 gusting 14 12.2
2019-Nov-16 14:30 352 11 gusting 13 12.2
2019-Nov-16 14:24 348 11 gusting 13 12.2
2019-Nov-16 14:18 343 11 gusting 14 12.2
2019-Nov-16 14:12 345 11 gusting 13 11.7
2019-Nov-16 14:06 345 10 gusting 14 11.7
2019-Nov-16 14:00 001 12 gusting 15 11.7
2019-Nov-16 13:54 006 12 gusting 15 11.7
2019-Nov-16 13:48 351 13 gusting 16 12.2
2019-Nov-16 13:42 001 11 gusting 15 12.2
2019-Nov-16 13:36 360 13 gusting 15 12.2
2019-Nov-16 13:30 356 13 gusting 15 12.2
2019-Nov-16 13:24 004 13 gusting 15 12.2
2019-Nov-16 13:18 004 13 gusting 15 12.2
2019-Nov-16 13:12 006 13 gusting 16 12.2
2019-Nov-16 13:06 008 12 gusting 16 12.8
2019-Nov-16 13:00 009 12 gusting 16 12.8
2019-Nov-16 12:54 359 14 gusting 17 12.8
2019-Nov-16 12:48 006 13 gusting 16 12.8
2019-Nov-16 12:42 358 13 gusting 15 12.8
2019-Nov-16 12:36 001 13 gusting 16 12.8
2019-Nov-16 12:30 005 12 gusting 15 12.8
2019-Nov-16 12:24 009 13 gusting 17 13.3
2019-Nov-16 12:18 007 10 gusting 16 13.3
2019-Nov-16 12:12 013 13 gusting 17 13.3
2019-Nov-16 12:06 013 12 gusting 17 13.9
2019-Nov-16 12:00 010 13 gusting 17 13.9
2019-Nov-16 11:54 012 13 gusting 16 13.9
2019-Nov-16 11:48 009 13 gusting 17 13.9
2019-Nov-16 11:42 014 12 gusting 19 13.9
2019-Nov-16 11:36 007 13 gusting 18 13.9
2019-Nov-16 11:30 004 14 gusting 18 13.9
2019-Nov-16 11:24 006 13 gusting 17 13.9
2019-Nov-16 11:18 007 15 gusting 18 13.9
2019-Nov-16 11:12 012 13 gusting 16 13.9
2019-Nov-16 11:06 015 12 gusting 16 14.4
2019-Nov-16 11:00 010 13 gusting 17 13.9
2019-Nov-16 10:54 010 13 gusting 16 13.9
2019-Nov-16 10:48 012 13 gusting 16 14.4
2019-Nov-16 10:42 002 13 gusting 16 14.4
2019-Nov-16 10:36 010 13 gusting 17 14.4
2019-Nov-16 10:30 005 13 gusting 17 14.4
2019-Nov-16 10:24 011 12 gusting 15 14.4
2019-Nov-16 10:18 006 13 gusting 16 14.4
2019-Nov-16 10:12 357 14 gusting 17 14.4
2019-Nov-16 10:06 358 13 gusting 16 13.9
2019-Nov-16 10:00 359 13 gusting 17 14.4
2019-Nov-16 09:54 355 14 gusting 16 14.4
2019-Nov-16 09:48 360 14 gusting 18 14.4
2019-Nov-16 09:42 356 14 gusting 17 14.4
2019-Nov-16 09:36 005 14 gusting 18 14.4
2019-Nov-16 09:30 354 14 gusting 18 14.4
2019-Nov-16 09:24 352 13 gusting 15 14.4
2019-Nov-16 09:18 346 13 gusting 17 14.4
2019-Nov-16 09:12 346 13 gusting 16 14.4
2019-Nov-16 09:06 353 13 gusting 15 14.4
2019-Nov-16 09:00 353 13 gusting 17 14.4
2019-Nov-16 08:54 352 12 gusting 17 14.4
2019-Nov-16 08:48 357 14 gusting 18 14.4
2019-Nov-16 08:42 359 13 gusting 17 14.4
2019-Nov-16 08:36 356 13 gusting 16 14.4
2019-Nov-16 08:30 345 12 gusting 15 14.4
2019-Nov-16 08:24 342 12 gusting 16 14.4
2019-Nov-16 08:18 346 12 gusting 15 14.4
2019-Nov-16 08:12 341 11 gusting 14 14.4
2019-Nov-16 08:06 342 11 gusting 15 14.4
2019-Nov-16 08:00 337 12 gusting 15 14.4
2019-Nov-16 07:54 339 12 gusting 15 14.4
2019-Nov-16 07:48 351 13 gusting 16 14.4
2019-Nov-16 07:42 348 13 gusting 16 14.4
2019-Nov-16 07:36 345 11 gusting 14 14.4
2019-Nov-16 07:30 343 12 gusting 14 14.4
2019-Nov-16 07:24 341 12 gusting 16 14.4
2019-Nov-16 07:18 349 13 gusting 16 13.9
2019-Nov-16 07:12 342 12 gusting 15 13.9
2019-Nov-16 07:06 345 12 gusting 16 14.4
2019-Nov-16 07:00 346 13 gusting 17 14.4
2019-Nov-16 06:54 344 11 gusting 17 14.4
2019-Nov-16 06:48 345 11 gusting 16 14.4
2019-Nov-16 06:42 341 11 gusting 16 14.4
2019-Nov-16 06:36 339 13 gusting 15 14.4
2019-Nov-16 06:30 340 13 gusting 16 14.4
2019-Nov-16 06:24 346 13 gusting 16 14.4
2019-Nov-16 06:18 341 11 gusting 16 14.4
2019-Nov-16 06:12 340 12 gusting 17 14.4
2019-Nov-16 06:06 341 13 gusting 16 14.4
2019-Nov-16 06:00 340 10 gusting 16 14.4
2019-Nov-16 05:54 343 13 gusting 16 14.4
2019-Nov-16 05:48 347 11 gusting 14 14.4
2019-Nov-16 05:42 347 14 gusting 18 14.4
2019-Nov-16 05:36 349 13 gusting 16 14.4
2019-Nov-16 05:30 354 13 gusting 18 14.4
2019-Nov-16 05:24 349 13 gusting 17 14.4
2019-Nov-16 05:18 344 13 gusting 16 14.4
2019-Nov-16 05:12 351 13 gusting 16 14.4
2019-Nov-16 05:06 351 13 gusting 16 14.4
2019-Nov-16 05:00 356 14 gusting 16 14.4
2019-Nov-16 04:54 354 12 gusting 16 14.4
2019-Nov-16 04:48 344 13 gusting 16 14.4
2019-Nov-16 04:42 345 11 gusting 13 14.4
2019-Nov-16 04:36 338 9 gusting 13 14.4
2019-Nov-16 04:30 339 10 gusting 13 14.4
2019-Nov-16 04:24 337 8 gusting 11 14.4
2019-Nov-16 04:18 336 11 gusting 13 14.4
2019-Nov-16 04:12 339 10 gusting 13 14.4
2019-Nov-16 04:06 339 8 gusting 12 14.4
2019-Nov-16 04:00 338 8 gusting 13 13.9
2019-Nov-16 03:54 337 8 gusting 10 13.9
2019-Nov-16 03:48 338 7 gusting 10 13.9
2019-Nov-16 03:42 336 7 gusting 10 13.9
2019-Nov-16 03:36 337 7 gusting 9 13.9
2019-Nov-16 03:30 337 8 gusting 11 13.9
2019-Nov-16 03:24 337 9 gusting 11 13.9
2019-Nov-16 03:18 338 8 gusting 11 13.9
2019-Nov-16 03:12 340 9 gusting 13 13.9
2019-Nov-16 03:06 339 9 gusting 13 13.9
2019-Nov-16 03:00 338 10 gusting 13 13.9
2019-Nov-16 02:54 339 9 gusting 13 13.9
2019-Nov-16 02:48 340 9 gusting 13 13.9
2019-Nov-16 02:42 342 9 gusting 13 13.9
2019-Nov-16 02:36 340 8 gusting 13 13.9
2019-Nov-16 02:30 340 8 gusting 13 13.9
2019-Nov-16 02:24 339 9 gusting 13 13.9
2019-Nov-16 02:18 339 10 gusting 13 13.9
2019-Nov-16 02:12 338 10 gusting 13 13.9
2019-Nov-16 02:06 337 10 gusting 13 13.9
2019-Nov-16 02:00 337 8 gusting 11 13.9
2019-Nov-16 01:42 335 9 gusting 11 13.9
2019-Nov-16 01:36 337 9 gusting 12 13.9
2019-Nov-16 01:30 335 9 gusting 13 13.9
2019-Nov-16 01:24 338 9 gusting 12 13.9
2019-Nov-16 01:18 338 9 gusting 13 13.9
2019-Nov-16 01:12 334 9 gusting 12 13.9
2019-Nov-16 01:06 335 7 gusting 12 13.9
2019-Nov-16 01:00 338 7 gusting 10 13.9
2019-Nov-16 00:54 339 7 gusting 11 13.9
2019-Nov-16 00:48 332 8 gusting 11 13.9
2019-Nov-16 00:42 338 6 gusting 10 13.9
2019-Nov-16 00:36 337 7 gusting 11 13.9
2019-Nov-16 00:30 340 8 gusting 11 13.9
2019-Nov-16 00:24 337 8 gusting 11 13.9
2019-Nov-16 00:18 336 7 gusting 10 13.9
2019-Nov-16 00:12 336 8 gusting 12 13.9
2019-Nov-16 00:06 337 9 gusting 11 13.9
2019-Nov-15 23:54 336 9 gusting 11 13.9
2019-Nov-15 23:42 334 9 gusting 12 13.9
2019-Nov-15 23:36 336 10 gusting 13 13.9
2019-Nov-15 23:30 337 9 gusting 13 13.9
2019-Nov-15 23:24 336 8 gusting 13 13.9
2019-Nov-15 23:18 337 11 gusting 13 13.9
2019-Nov-15 23:12 335 10 gusting 13 13.9
2019-Nov-15 23:06 332 10 gusting 13 13.9
2019-Nov-15 23:00 333 11 gusting 13 13.9
2019-Nov-15 22:54 333 10 gusting 13 13.9
2019-Nov-15 22:48 329 12 gusting 13 13.9
2019-Nov-15 22:42 330 12 gusting 14 13.9
2019-Nov-15 22:36 329 13 gusting 15 13.9
2019-Nov-15 22:30 330 11 gusting 15 13.9
2019-Nov-15 22:24 328 12 gusting 15 13.9
2019-Nov-15 22:18 330 13 gusting 15 13.9
2019-Nov-15 22:12 330 11 gusting 14 13.9
2019-Nov-15 22:06 328 12 gusting 15 13.3
2019-Nov-15 22:00 327 12 gusting 16 13.3
2019-Nov-15 21:54 327 13 gusting 16 13.3
2019-Nov-15 21:48 328 12 gusting 15 13.3
2019-Nov-15 21:42 327 13 gusting 17 13.3
2019-Nov-15 21:36 328 14 gusting 17 13.3
2019-Nov-15 21:30 329 13 gusting 17 13.3
2019-Nov-15 21:24 326 13 gusting 15 13.3
2019-Nov-15 21:18 328 12 gusting 15 13.3
2019-Nov-15 21:12 325 14 gusting 17 13.3
2019-Nov-15 21:06 323 13 gusting 14 13.3
2019-Nov-15 21:00 327 13 gusting 15 13.3
2019-Nov-15 20:54 324 13 gusting 16 13.3
2019-Nov-15 20:48 325 12 gusting 14 13.3
2019-Nov-15 20:42 326 12 gusting 14 13.3
2019-Nov-15 20:36 323 13 gusting 16 13.3
2019-Nov-15 20:30 325 13 gusting 15 13.3
2019-Nov-15 20:24 326 13 gusting 16 13.3
2019-Nov-15 20:18 323 12 gusting 14 13.3
2019-Nov-15 20:12 325 11 gusting 15 13.3
2019-Nov-15 20:06 327 12 gusting 14 13.3
2019-Nov-15 20:00 323 11 gusting 13 13.3
2019-Nov-15 19:54 322 12 gusting 13 13.3
2019-Nov-15 19:48 321 11 gusting 14 13.3
2019-Nov-15 19:42 325 11 gusting 13 13.3
2019-Nov-15 19:36 326 10 gusting 14 13.3
2019-Nov-15 19:30 316 13 gusting 14 13.3
2019-Nov-15 19:24 316 11 gusting 13 13.3
2019-Nov-15 19:18 325 10 gusting 13 13.3
2019-Nov-15 19:12 335 9 gusting 13 13.3
2019-Nov-15 19:06 346 10 gusting 13 13.3
2019-Nov-15 19:00 350 9 gusting 13 13.3
2019-Nov-15 18:54 350 11 gusting 14 13.9
2019-Nov-15 18:48 348 11 gusting 13 13.9
2019-Nov-15 18:42 349 10 gusting 13 13.9
2019-Nov-15 18:36 351 12 gusting 13 13.9
2019-Nov-15 18:30 350 11 gusting 14 13.9
2019-Nov-15 18:24 350 12 gusting 13 13.9
2019-Nov-15 18:18 346 10 gusting 14 13.9
2019-Nov-15 18:12 352 13 gusting 14 13.9
2019-Nov-15 18:06 342 9 gusting 13 13.3
2019-Nov-15 18:00 349 9 gusting 12 13.3
2019-Nov-15 17:54 344 11 gusting 13 13.3
2019-Nov-15 17:48 341 9 gusting 13 13.3
2019-Nov-15 17:42 351 11 gusting 13 13.3
2019-Nov-15 17:36 011 12 gusting 13 13.3
2019-Nov-15 17:30 005 11 gusting 13 13.3
2019-Nov-15 17:24 001 11 gusting 13 13.3
2019-Nov-15 17:18 008 11 gusting 14 13.3
2019-Nov-15 17:12 354 12 gusting 14 13.3
2019-Nov-15 17:06 012 10 gusting 13 13.3
2019-Nov-15 17:00 010 11 gusting 15 13.3
2019-Nov-15 16:54 007 11 gusting 13 13.3
2019-Nov-15 16:48 001 10 gusting 13 13.3
2019-Nov-15 16:42 010 10 gusting 13 13.3
2019-Nov-15 16:36 014 12 gusting 16 13.3
2019-Nov-15 16:30 007 13 gusting 15 13.3
2019-Nov-15 16:24 007 11 gusting 15 13.3
2019-Nov-15 16:18 356 12 gusting 15 13.3
2019-Nov-15 16:12 012 10 gusting 15 13.3
2019-Nov-15 16:06 13.3
2019-Nov-15 16:00 006 13 gusting 17 13.3
2019-Nov-15 15:54 006 13 gusting 17 13.3
2019-Nov-15 15:48 358 13 gusting 16 13.3
2019-Nov-15 15:42 005 12 gusting 16 13.3
2019-Nov-15 15:36 005 12 gusting 15 13.3
2019-Nov-15 15:30 003 13 gusting 18 13.3
2019-Nov-15 15:24 006 13 gusting 16 13.3
2019-Nov-15 15:18 009 13 gusting 17 13.3
2019-Nov-15 15:12 005 13 gusting 17 13.3
2019-Nov-15 15:06 13.3
2019-Nov-15 15:00 010 12 gusting 18 13.3
2019-Nov-15 14:54 003 14 gusting 19 13.3
2019-Nov-15 14:48 006 14 gusting 19 13.3
2019-Nov-15 14:42 006 14 gusting 21 13.3
2019-Nov-15 14:36 359 15 gusting 22 13.3
2019-Nov-15 14:30 358 16 gusting 22 13.3
2019-Nov-15 14:24 001 17 gusting 22 13.3
2019-Nov-15 14:18 004 17 gusting 21 13.3
2019-Nov-15 14:12 007 16 gusting 21 13.3
2019-Nov-15 14:06 004 17 gusting 22 13.3
2019-Nov-15 14:00 356 16 gusting 20 13.3
2019-Nov-15 13:54 354 17 gusting 21 13.3
2019-Nov-15 13:48 354 17 gusting 21 13.3
2019-Nov-15 13:42 356 13 gusting 19 13.3
2019-Nov-15 13:36 356 15 gusting 19 13.3
2019-Nov-15 13:30 347 16 gusting 20 13.3
2019-Nov-15 13:24 358 14 gusting 19 13.3
2019-Nov-15 13:18 349 14 gusting 19 13.3
2019-Nov-15 13:12 001 17 gusting 21 13.3
2019-Nov-15 13:06 350 17 gusting 22 13.3
2019-Nov-15 13:00 357 16 gusting 20 13.9
2019-Nov-15 12:54 354 15 gusting 21 13.3
2019-Nov-15 12:48 352 17 gusting 21 13.9
2019-Nov-15 12:42 356 19 gusting 24 14.4
2019-Nov-15 12:36 357 19 gusting 22 13.9
2019-Nov-15 12:30 360 17 gusting 22 13.9
2019-Nov-15 12:24 351 18 gusting 22 14.4
2019-Nov-15 12:18 003 19 gusting 23 14.4
2019-Nov-15 12:12 357 18 gusting 22 14.4
2019-Nov-15 12:06 356 17 gusting 20 14.4
2019-Nov-15 12:00 002 17 gusting 22 15.0
2019-Nov-15 11:54 359 19 gusting 22 15.0
2019-Nov-15 11:48 359 19 gusting 22 14.4
2019-Nov-15 11:42 356 16 gusting 21 15.6
2019-Nov-15 11:36 350 17 gusting 21 15.6
2019-Nov-15 11:30 360 18 gusting 20 15.0
2019-Nov-15 11:24 359 15 gusting 20 15.6
2019-Nov-15 11:18 358 16 gusting 19 15.0
2019-Nov-15 11:12 002 15 gusting 19 15.0
2019-Nov-15 11:06 359 16 gusting 21 15.0
2019-Nov-15 11:00 002 17 gusting 20 15.6
2019-Nov-15 10:54 359 17 gusting 20 15.0
2019-Nov-15 10:48 002 16 gusting 20 15.0
2019-Nov-15 10:42 001 16 gusting 23 15.0
2019-Nov-15 10:36 007 14 gusting 19 14.4
2019-Nov-15 10:30 011 13 gusting 19 14.4
2019-Nov-15 10:24 005 16 gusting 20 15.6
2019-Nov-15 10:18 010 13 gusting 20 15.0
2019-Nov-15 10:12 357 16 gusting 22 15.0
2019-Nov-15 10:06 357 19 gusting 23 15.0
2019-Nov-15 10:00 352 17 gusting 20 15.0
2019-Nov-15 09:54 005 18 gusting 21 15.0
2019-Nov-15 09:48 010 16 gusting 19 15.0
2019-Nov-15 09:42 002 15 gusting 19 15.0
2019-Nov-15 09:36 003 16 gusting 20 15.0
2019-Nov-15 09:30 001 16 gusting 20 15.6
2019-Nov-15 09:24 006 15 gusting 21 15.0
2019-Nov-15 09:18 005 17 gusting 21 15.6
2019-Nov-15 09:12 012 15 gusting 20 15.6
2019-Nov-15 09:06 011 14 gusting 20 15.6
2019-Nov-15 09:00 004 16 gusting 19 15.6
2019-Nov-15 08:54 360 16 gusting 19 16.1
2019-Nov-15 08:48 354 14 gusting 19 15.0
2019-Nov-15 08:42 004 16 gusting 19 15.6
2019-Nov-15 08:36 010 14 gusting 19 15.6
2019-Nov-15 08:30 007 17 gusting 19 15.6
2019-Nov-15 08:24 013 14 gusting 19 15.6
2019-Nov-15 08:18 016 15 gusting 19 15.6
2019-Nov-15 08:12 010 14 gusting 19 15.6
2019-Nov-15 08:06 017 14 gusting 19 16.1
2019-Nov-15 08:00 015 14 gusting 19 16.1
2019-Nov-15 07:54 019 14 gusting 19 16.1
2019-Nov-15 07:48 019 13 gusting 19 16.1
2019-Nov-15 07:42 021 13 gusting 19 16.1
2019-Nov-15 07:36 014 14 gusting 19 16.1
2019-Nov-15 07:30 018 15 gusting 19 16.1
2019-Nov-15 07:24 014 13 gusting 17 16.1
2019-Nov-15 07:18 015 13 gusting 18 16.1
2019-Nov-15 07:12 020 13 gusting 17 16.1
2019-Nov-15 07:06 019 13 gusting 18 16.1
2019-Nov-15 07:00 014 13 gusting 17 16.1
2019-Nov-15 06:54 017 13 gusting 18 16.1
2019-Nov-15 06:48 017 13 gusting 16 16.1
2019-Nov-15 06:42 014 13 gusting 18 16.1
2019-Nov-15 06:36 019 13 gusting 18 16.1
2019-Nov-15 06:30 018 16 gusting 19 16.1
2019-Nov-15 06:24 013 14 gusting 19 16.1
2019-Nov-15 06:18 013 14 gusting 19 16.1
2019-Nov-15 06:12 015 13 gusting 19 16.1
2019-Nov-15 06:06 012 14 gusting 18 16.1
2019-Nov-15 06:00 009 13 gusting 18 16.1
2019-Nov-15 05:54 017 13 gusting 16 16.1
2019-Nov-15 05:48 012 13 gusting 18 16.1
2019-Nov-15 05:42 002 14 gusting 19 16.1
2019-Nov-15 05:36 006 13 gusting 19 15.6
2019-Nov-15 05:30 010 13 gusting 19 16.1
2019-Nov-15 05:24 012 13 gusting 19 16.1
2019-Nov-15 05:18 014 13 gusting 19 15.6
2019-Nov-15 05:12 008 13 gusting 18 16.1
2019-Nov-15 05:06 014 13 gusting 18 15.6
2019-Nov-15 05:00 009 13 gusting 18 15.6
2019-Nov-15 04:54 013 13 gusting 18 15.6
2019-Nov-15 04:48 013 13 gusting 19 15.6
2019-Nov-15 04:42 014 13 gusting 18 15.6
2019-Nov-15 04:36 013 14 gusting 20 15.6
2019-Nov-15 04:30 013 13 gusting 18 15.6
2019-Nov-15 04:24 010 15 gusting 19 15.6
2019-Nov-15 04:18 011 13 gusting 19 15.6
2019-Nov-15 04:12 011 14 gusting 18 15.0
2019-Nov-15 04:06 012 13 gusting 18 15.6
2019-Nov-15 04:00 014 12 gusting 18 15.0
2019-Nov-15 03:54 019 14 gusting 18 15.0
2019-Nov-15 03:48 016 16 gusting 19 15.0
2019-Nov-15 03:42 020 13 gusting 19 15.0
2019-Nov-15 03:36 017 14 gusting 20 15.0
2019-Nov-15 03:30 016 15 gusting 19 14.4
2019-Nov-15 03:24 017 13 gusting 19 14.4
2019-Nov-15 03:18 017 15 gusting 18 14.4
2019-Nov-15 03:12 018 14 gusting 19 14.4
2019-Nov-15 03:06 015 14 gusting 19 14.4
2019-Nov-15 03:00 014 14 gusting 19 14.4
2019-Nov-15 02:54 015 13 gusting 19 14.4
2019-Nov-15 02:48 016 13 gusting 19 14.4
2019-Nov-15 02:42 018 12 gusting 16 14.4
2019-Nov-15 02:36 018 13 gusting 16 14.4
2019-Nov-15 02:30 011 14 gusting 18 14.4
2019-Nov-15 02:24 013 13 gusting 18 14.4
2019-Nov-15 02:18 015 13 gusting 18 14.4
2019-Nov-15 02:12 018 13 gusting 16 14.4
2019-Nov-15 02:06 021 13 gusting 18 14.4
2019-Nov-15 02:00 018 14 gusting 19 14.4